Location: Howard City Library
(37.4684°N, 96.2639°W)
Time: 20:31:44
(UTC+00:00)

STARLINK-1099 - Pass Details

Date: 18 February 2020
Orbit: 548 x 551 km, 53.0° (Epoch: 03 April)

Event Time Altitude Azimuth Distance (km) Brightness Sun altitude
Exits shadow 10:03:36 - 102° (ESE) 1,958 7.0 -37.7°
Enters shadow 11:07:56 -59° 227° (SW) 11,553 10.3 -25.1°
Maximum altitude 11:41:17 86° 136° (SE) 568 3.6 -18.5°
